Location: General Nathan Twining Observatory
(34.5931°N, 106.8201°W)
Time: 17:31:56
(UTC-06:00)

ADEOS II - Visible Passes

Search period start: 01 September 2014 00:00
Search period end: 11 September 2014 00:00
Orbit: 800 x 804 km, 98.3° (Epoch: 31 August)

Date Brightness Start Highest point End Pass type
(mag) Time Alt. Az. Time Alt. Az. Time Alt. Az.
03 Sep 5.2 05:56:55 10° ENE 05:59:30 14° E 06:02:04 10° ESE visible
06 Sep 4.9 06:17:24 10° NE 06:21:33 23° E 06:25:40 10° SSE visible
07 Sep 5.3 05:53:11 10° ENE 05:55:21 12° E 05:57:30 10° ESE visible
08 Sep 5.7 20:05:01 10° W 20:05:44 10° W 20:06:28 10° W visible
10 Sep 4.9 06:13:26 10° NE 06:17:24 22° E 06:21:21 10° SE visible
